ATLAS 5 CENTAUR R/B

基本信息
目录编号:
53356
目录名称:
ATLAS 5 CENTAUR R/B
国际标识:
2022-092B
轨道中心:
EARTH
物体状态:
在轨
发射日期:
2022-08-04 UTC
国别:
美国 (US)
轨道信息
数据来源: 国际轨道数据
星历时间: 2026-07-11T07:46:08+0800
半长轴: 26651.638km
偏心率: 0.5623822
轨道倾角: 15.835°
近地点辐角: 205.048°
升交点赤经: 103.056°
平近点角: 111.413°
近地点: 5285.094km
远地点: 35261.908km
周期: 721.682分钟
每日圈数: 1.99534
详细信息
发射场:
AFETR
轨道高度:
MEO
数据来源:
AOE Integration Group
参考系:
TEME
时间系统:
UTC
历元类型:
SGP4
2D轨道图
3D轨道图
轨道高度分析图
轨道倾角分析图
轨道综合分析图
查看轨道综合分析图